Location: Dompnac
(44.5644°N, 4.1026°E)
Time: 17:22:56
(UTC+00:00)

Cosmos 1634 Rocket - Pass Details

Date: 22 January 2021
Orbit: 961 x 991 km, 82.9° (Epoch: 05 March)

Event Time Altitude Azimuth Distance (km) Brightness Sun altitude
Rises 17:14:52 0° 349° (NNW) 3,679 6.9 -6.7°
Reaches altitude 10° 17:17:23 10° 346° (NNW) 2,732 6.3 -7.1°
Maximum altitude 17:23:34 65° 267° (W) 1,074 4.6 -8.1°
Drops below altitude 10° 17:29:45 10° 187° (S) 2,734 6.7 -9.2°
Sets 17:32:17 0° 184° (S) 3,681 7.3 -9.6°
